Content
SEND FEEDBACK

Daily
Averages
Monthly
Summary
United States of America

UMATAC, GUAM


Home > North America > United States > Guam
Elevation: 190 feet     Latitude: 13 17N     Longitude: 144 40E

WEATHER
 
SELECT A DAY
Number of Records: 354,148;   Date Range: 1/1/95 - 11/20/14
 
SHARE

PRINT THIS DATA

[ ← Previous Day ]
WEATHER ALMANAC - AUGUST 15, 2014
[ Next Day → ]
[ °C ]   °F
Weather ElementAverageHighLow
Temperature80.2 °F86 °F (12:08 pm)70.5 °F (1:58 am)
Dewpoint74.7 °F77 °F (12:13 am)67.8 °F (1:58 am)
Humidity83.6 %94 % (5:23 am)70 % (12:18 pm)
Barometer29.88 in29.92 in (11:33 am)29.83 in (4:58 am)
Wind Speed8.8 mph16.1 mph (10:03 am)
Wind Gust17.3 mph (7:53 pm)
Weather ElementAverage
Visibility9 mi
Wind DirectionSE (137.5 °)

Weather ElementTotal
Precipitation0.18 in
Cooling Degree Days13.3 (Base 65)
Growing Degree Days28.3 (Base 50)
Averaged from 57 records on August 15, 2014
WEATHER CONDITIONS BREAKOUT
WIND DIRECTION BREAKOUT
WEATHER BY HOUR - AUGUST 15, 2014
[ °C ]   °F
Local TimeTemperatureDewpointHumidityBarometerVisibilityWind DirectionWind SpeedGust SpeedPrecipitationEventsConditions
12:58 AM76.1 °F72.7 °F89 %29.87 in10.0 miSE (130°)3.5 mphClear
1:58 AM70.5 °F67.8 °F91 %29.86 in10.0 miCalmClear
2:58 AM72.5 °F70.5 °F93 %29.86 in10.0 miCalmClear
3:58 AM72.3 °F70.5 °F94 %29.84 in10.0 miSE (130°)2.3 mphClear
4:58 AM72.9 °F70.5 °F92 %29.84 in10.0 miESE (110°)1.2 mphClear
5:58 AM72.0 °F68.7 °F89 %29.86 in10.0 miEast (90°)5.8 mphScattered Clouds
6:58 AM77.0 °F73.4 °F89 %29.87 in10.0 miEast (100°)5.8 mphScattered Clouds
7:03 AM75.2 °F71.6 °F89 %29.90 in10.0 miEast (100°)5.8 mphScattered Clouds
7:23 AM77.0 °F73.4 °F89 %29.91 in10.0 miESE (110°)5.8 mphScattered Clouds
7:53 AM77.0 °F71.6 °F83 %29.92 in10.0 miESE (120°)8.1 mphMostly Cloudy
7:58 AM76.5 °F72.0 °F86 %29.89 in10.0 miESE (120°)8.1 mphMostly Cloudy
8:28 AM75.2 °F69.8 °F83 %29.92 in10.0 miESE (110°)10.4 mphScattered Clouds
8:58 AM78.8 °F71.6 °F78 %29.91 in10.0 miESE (110°)8.1 mphMostly Cloudy
9:18 AM78.8 °F71.6 °F78 %29.92 in10.0 miESE (120°)9.2 mphScattered Clouds
9:58 AM83.3 °F75.4 °F77 %29.89 in10.0 miESE (120°)12.7 mphScattered Clouds
10:23 AM84.2 °F75.2 °F74 %29.91 in10.0 miESE (120°)15.0 mphScattered Clouds
10:28 AM84.2 °F75.2 °F74 %29.91 in10.0 miEast (100°)16.1 mphMostly Cloudy
10:33 AM84.2 °F75.2 °F74 %29.91 in10.0 miESE (110°)13.8 mphScattered Clouds
10:58 AM84.9 °F75.9 °F74 %29.88 in10.0 miESE (110°)12.7 mphPartly Cloudy
11:29 AM84.2 °F75.2 °F74 %29.91 in10.0 miEast (100°)15.0 mphMostly Cloudy
11:44 AM86.0 °F77.0 °F74 %29.90 in10.0 miSE (130°)16.1 mphMostly Cloudy
11:50 AM84.2 °F75.2 °F74 %29.90 in10.0 miEast (100°)16.1 mphMostly Cloudy
11:55 AM84.2 °F75.2 °F74 %29.90 in10.0 miESE (120°)16.1 mphMostly Cloudy
11:58 AM84.2 °F75.2 °F74 %29.87 in10.0 miESE (120°)13.8 mphMostly Cloudy
12:58 PM84.9 °F75.2 °F73 %29.86 in10.0 miESE (120°)15.0 mphMostly Cloudy
1:13 PM84.2 °F75.2 °F74 %29.88 in10.0 miESE (110°)12.7 mphMostly Cloudy
1:28 PM84.2 °F75.2 °F74 %29.88 in10.0 miESE (120°)13.8 mphScattered Clouds
1:33 PM86.0 °F75.2 °F70 %29.88 in10.0 miESE (110°)13.8 mphMostly Cloudy
1:43 PM86.0 °F75.2 °F70 %29.87 in10.0 miESE (120°)13.8 mphScattered Clouds
1:58 PM84.9 °F75.6 °F73 %29.84 in10.0 miESE (110°)12.7 mphPartly Cloudy
2:58 PM84.9 °F75.7 °F74 %29.83 in10.0 miSE (140°)16.1 mphClear
3:28 PM84.2 °F75.2 °F74 %29.86 in10.0 miSE (130°)12.7 mphMostly Cloudy
3:58 PM85.3 °F76.1 °F74 %29.83 in9.0 miESE (120°)10.4 mphScattered Clouds
3:59 PM84.2 °F77.0 °F79 %29.86 in8.0 miSE (130°)10.4 mphLight Drizzle
4:09 PM84.2 °F77.0 °F79 %29.86 in10.0 miSE (130°)13.8 mphMostly Cloudy
4:58 PM84.2 °F76.1 °F77 %29.83 in10.0 miSSE (150°)12.7 mph0.00 inScattered Clouds
5:00 PM84.2 °F77.0 °F79 %29.86 in7.0 miSSE (150°)12.7 mphRainLight Rain
5:10 PM82.4 °F77.0 °F84 %29.86 in10.0 miSSE (150°)10.4 mphScattered Clouds
5:58 PM82.0 °F75.9 °F82 %29.84 in10.0 miSouth (170°)10.4 mph0.00 inPartly Cloudy
6:40 PM78.8 °F75.2 °F89 %29.89 in3.0 miSSE (160°)5.8 mphRainLight Rain
6:45 PM78.8 °F77.0 °F94 %29.89 in9.0 miSouth (170°)5.8 mphRainLight Rain
6:50 PM78.8 °F77.0 °F94 %29.88 in10.0 miSouth (170°)4.6 mphLight Drizzle
6:53 PM78.8 °F77.0 °F94 %29.89 in10.0 miSouth (170°)5.8 mphScattered Clouds
6:58 PM79.2 °F76.6 °F92 %29.86 in10.0 miSouth (170°)5.8 mph0.01 inScattered Clouds
7:53 PM78.8 °F75.2 °F89 %29.90 in2.5 miSouth (180°)8.1 mph17.3 mphScattered Clouds
7:54 PM78.8 °F75.2 °F89 %29.91 in1.8 miSouth (180°)6.9 mph17.3 mphRainLight Rain
7:58 PM78.8 °F75.2 °F89 %29.87 in0.8 miSSW (210°)5.8 mph17.3 mph0.09 inRainHeavy Rain
8:03 PM78.8 °F77.0 °F94 %29.90 in1.0 miSW (220°)5.8 mphRainLight Rain
8:06 PM78.8 °F77.0 °F94 %29.91 in7.0 miSW (220°)4.6 mphMostly Cloudy
8:07 PM78.8 °F77.0 °F94 %29.91 in3.0 miSW (220°)4.6 mphRainLight Rain
8:12 PM77.0 °F75.2 °F94 %29.91 in9.0 miSSW (210°)3.5 mphRainLight Rain
8:13 PM77.0 °F75.2 °F94 %29.91 in10.0 miSSW (210°)3.5 mphMostly Cloudy
8:23 PM77.0 °F75.2 °F94 %29.91 in10.0 miSSW (200°)2.3 mphScattered Clouds
8:58 PM78.3 °F76.1 °F93 %29.89 in10.0 miSSW (200°)2.3 mph0.08 inClear
9:58 PM78.3 °F76.1 °F93 %29.89 in10.0 miSSE (160°)4.6 mphClear
10:58 PM78.3 °F75.9 °F92 %29.89 in10.0 miSSE (160°)5.8 mphClear
11:58 PM77.9 °F75.4 °F92 %29.88 in10.0 miSouth (190°)4.6 mphClear
Hourly data recorded from PGUA, located miles away from Umatac, Guam







STORIES FROM OUR PARTNERS